Regional Weather Roundup
Issued by NWS Cleveland, OH

Home | Current Version | Previous Version | Graphics & Text | Print | Product List | Glossary On
Versions: 1 2 3 4 5 6 7 8 9 10 11 12 13 14 15 16 17 18 19 20 21 22 23 24 25 26 27 28 29 30 31 32 33 34 35 36 37 38 39 40 41 42 43 44 45 46 47 48 49 50
000
ASUS41 KCLE 270002
RWRCLE
OHIO REGIONAL WEATHER ROUNDUP
NATIONAL WEATHER SERVICE CLEVELAND, OH
800 PM EDT FRI AUG 26 2016

NOTE: "FAIR" INDICATES FEW OR NO CLOUDS BELOW 12,000 FEET WITH NO
SIGNIFICANT WEATHER AND/OR OBSTRUCTIONS TO VISIBILITY.

OHZ001>008-015>018-024>027-034-035-043-044-270100-
   NORTHWEST OHIO

CITY           SKY/WX    TMP DP  RH WIND       PRES   REMARKS
DEFIANCE       MOCLDY    78  67  68 CALM      30.12S
FINDLAY        CLEAR     81  62  52 CALM      30.12R
TOLEDO EXPRESS PTCLDY    74  67  78 CALM      30.11F
TOLEDO EXEC    CLEAR     79  68  69 E3        30.13R
LIMA           CLEAR     76  70  82 E3        30.13R
$$

OHZ009>014-019>023-028>033-038-089-270100-
   NORTHEAST OHIO

CITY           SKY/WX    TMP DP  RH WIND       PRES   REMARKS
CLE-HOPKINS    MOCLDY    77  58  51 N5        30.15S
CLE-LAKEFRONT  CLEAR     76  62  62 CALM      30.12S
CUY CO. ARPT   CLEAR     75  61  60 NE6       30.14F
LORAIN-ELYRIA  CLEAR     74  56  53 N5        30.14S
ASHTABULA      CLEAR     70  65  84 CALM      30.15S
AKRON-CANTON   PTCLDY    76  57  51 N6        30.13S
WOOSTER        CLEAR     75  60  59 N6        30.14R
MANSFIELD      CLEAR     76  62  62 NW3       30.15R
YOUNGSTOWN     PTCLDY    75  63  66 N8        30.14S
$$

OHZ042-051>053-060>062-070>072-077>081-270100-
  SOUTHWEST OHIO

CITY           SKY/WX    TMP DP  RH WIND       PRES   REMARKS
CINC-COVINGTON MOCLDY    84  74  71 N10       30.10R THUNDER HX  91
CINC-LUNKEN    NOT AVBL
HAMILTON       LGT RAIN  74  70  87 NW9       30.11R
DAYTON         MOCLDY    81  72  74 NE5       30.11R
WRIGHT-PAT AFB MOCLDY    84  73  70 E3        30.10R HX  91
DAYTON GENERAL TSTM      83  69  62 NE5       30.10R
WILMINGTON     CLEAR     79  74  84 E3        30.10R
$$

OHZ036-037-039>041-045>050-054>059-063>069-073>076-082>088-270100-
  CENTRAL AND SOUTHEAST OHIO

CITY           SKY/WX    TMP DP  RH WIND       PRES   REMARKS
COLUMBUS       PTCLDY    81  68  64 NE6       30.10R
OSU AIRPORT    CLEAR     79  69  71 N6        30.11R
BOLTON FIELD   CLEAR     78  72  80 N6        30.11S
RICKENBACK AFB CLEAR     81  72  74 E5        30.09R
NEWARK         CLEAR     82  70  66 N3        30.10S
MARION         CLEAR     78  67  68 N6        30.14R
LANCASTER      CLEAR     81  75  82 NE3       30.10S
ZANESVILLE     CLEAR     83  69  62 CALM      30.11S
NEW PHILLY     CLEAR     84  60  44 CALM      30.12R
$$



USA.gov is the U.S. government's official web portal to all federal, state and local government web resources and services.